Location: Central Springs Elementary School at Manly
(43.2859°N, 93.1959°W)
Time: 06:40:11
(UTC+00:00)

UNISAT 6 - Pass Details

Date: 13 December 2024
Orbit: 584 x 653 km, 97.7° (Epoch: 18 January)

Event Time Altitude Azimuth Distance (km) Brightness Sun altitude
Rises 23:40:49 0° 358° (N) 2,835 ? -11.1°
Reaches altitude 10° 23:43:21 10° 343° (NNW) 1,936 ? -11.5°
Maximum altitude 23:46:33 22° 293° (WNW) 1,339 ? -12.1°
Drops below altitude 10° 23:49:47 10° 243° (WSW) 1,953 ? -12.6°
Sets 23:52:22 0° 228° (SW) 2,865 ? -13.1°
